When you browse on this site, cookies collect data to enhance your experience and personalize the content and advertising you see.
Visit our Privacy Policy to learn more. By continuing to use the site, you agree to this use of cookies and data.

Hourly Weather Ischgl

Today, 11 August, Tuesday

Time Temperature Precipitation Wind Pressure Humidity
00:00 +9°C° 0 mm 1 mps 578 mmHg 85%
01:00 +9°C° 0 mm 1 mps 577 mmHg 84%
02:00 +9°C° 0 mm 1 mps 577 mmHg 84%
03:00 +8°C° 0 mm 1 mps 577 mmHg 84%
04:00 +8°C° 0 mm 1 mps 577 mmHg 84%
05:00 +10°C° 0 mm 1 mps 578 mmHg 79%
06:00 +10°C° 0 mm 0 mps 579 mmHg 75%
07:00 +12°C° 0 mm 0 mps 580 mmHg 70%
08:00 +14°C° 0.1 mm 0 mps 580 mmHg 65%
09:00 +15°C° 0.1 mm 0 mps 581 mmHg 60%
10:00 +17°C° 0.1 mm 0 mps 582 mmHg 54%
11:00 +19°C° 0.6 mm 1 mps 582 mmHg 53%
12:00 +19°C° 0.6 mm 1 mps 582 mmHg 52%
13:00 +19°C° 0.6 mm 2 mps 582 mmHg 50%
14:00 +18°C° 1 mm 2 mps 582 mmHg 54%
15:00 +18°C° 1 mm 2 mps 581 mmHg 57%
16:00 +17°C° 1 mm 2 mps 581 mmHg 61%
17:00 +16°C° 0.9 mm 1 mps 580 mmHg 67%
18:00 +15°C° 0.9 mm 1 mps 580 mmHg 74%
19:00 +13°C° 0.9 mm 1 mps 579 mmHg 81%
20:00 +12°C° 0.1 mm 1 mps 579 mmHg 82%
21:00 +11°C° 0.1 mm 1 mps 578 mmHg 84%
22:00 +9°C° 0.1 mm 0 mps 578 mmHg 85%
23:00 +10°C° 0 mm 1 mps 578 mmHg 85%

Tomorrow, 12 August, Wednesday

Time Temperature Precipitation Wind Pressure Humidity
00:00 +9°C° 0 mm 1 mps 578 mmHg 84%
01:00 +9°C° 0 mm 1 mps 577 mmHg 83%
02:00 +9°C° 0 mm 1 mps 577 mmHg 83%
03:00 +8°C° 0 mm 1 mps 577 mmHg 82%
04:00 +7°C° 0 mm 0 mps 577 mmHg 81%
05:00 +9°C° 0 mm 0 mps 578 mmHg 77%
06:00 +11°C° 0 mm 0 mps 579 mmHg 72%
07:00 +13°C° 0 mm 0 mps 580 mmHg 68%
08:00 +14°C° 0 mm 0 mps 581 mmHg 61%
09:00 +16°C° 0 mm 0 mps 581 mmHg 54%
10:00 +18°C° 0 mm 0 mps 582 mmHg 47%
11:00 +20°C° 0 mm 1 mps 582 mmHg 44%
12:00 +21°C° 0 mm 1 mps 583 mmHg 41%
13:00 +22°C° 0 mm 1 mps 583 mmHg 38%
14:00 +22°C° 0.1 mm 1 mps 583 mmHg 40%
15:00 +21°C° 0.1 mm 1 mps 582 mmHg 42%
16:00 +20°C° 0.1 mm 2 mps 582 mmHg 45%
17:00 +19°C° 0.5 mm 1 mps 581 mmHg 55%
18:00 +16°C° 0.5 mm 1 mps 580 mmHg 66%
19:00 +14°C° 0.5 mm 1 mps 580 mmHg 77%
20:00 +13°C° 0.6 mm 1 mps 579 mmHg 79%
21:00 +13°C° 0.6 mm 1 mps 579 mmHg 81%
22:00 +12°C° 0.6 mm 1 mps 579 mmHg 83%
23:00 +11°C° 0.1 mm 1 mps 579 mmHg 83%

Day after tomorrow, 13 August, Thursday

Time Temperature Precipitation Wind Pressure Humidity
00:00 +11°C° 0.1 mm 1 mps 579 mmHg 83%
01:00 +11°C° 0.1 mm 1 mps 578 mmHg 82%
02:00 +10°C° 0 mm 1 mps 578 mmHg 83%
03:00 +10°C° 0 mm 1 mps 578 mmHg 84%
04:00 +9°C° 0 mm 1 mps 577 mmHg 84%
05:00 +11°C° 0 mm 1 mps 578 mmHg 81%
06:00 +12°C° 0 mm 1 mps 579 mmHg 79%
07:00 +13°C° 0 mm 1 mps 579 mmHg 76%
08:00 +15°C° 0.4 mm 1 mps 580 mmHg 71%
09:00 +16°C° 0.4 mm 1 mps 580 mmHg 65%
10:00 +18°C° 0.4 mm 1 mps 581 mmHg 60%
11:00 +18°C° 1.6 mm 1 mps 581 mmHg 63%
12:00 +16°C° 1.6 mm 1 mps 580 mmHg 66%
13:00 +16°C° 1.6 mm 1 mps 580 mmHg 69%
14:00 +16°C° 1.7 mm 1 mps 580 mmHg 71%
15:00 +15°C° 1.7 mm 2 mps 580 mmHg 74%
16:00 +15°C° 1.7 mm 2 mps 580 mmHg 76%
17:00 +14°C° 1.1 mm 2 mps 579 mmHg 80%
18:00 +13°C° 1.1 mm 1 mps 579 mmHg 85%
19:00 +12°C° 1.1 mm 1 mps 578 mmHg 90%
20:00 +11°C° 0.4 mm 1 mps 578 mmHg 90%
21:00 +10°C° 0.4 mm 0 mps 578 mmHg 90%
22:00 +9°C° 0.4 mm 0 mps 578 mmHg 91%
23:00 +9°C° 0.1 mm 0 mps 577 mmHg 91%

14 August, Friday

Time Temperature Precipitation Wind Pressure Humidity
00:00 +9°C° 0.1 mm 0 mps 577 mmHg 91%
01:00 +9°C° 0.1 mm 0 mps 577 mmHg 91%
02:00 +9°C° 0.4 mm 0 mps 577 mmHg 91%
03:00 +9°C° 0.4 mm 0 mps 577 mmHg 91%
04:00 +9°C° 0.4 mm 0 mps 576 mmHg 91%
05:00 +9°C° 0.4 mm 0 mps 577 mmHg 90%
06:00 +9°C° 0.4 mm 0 mps 577 mmHg 89%
07:00 +10°C° 0.4 mm 0 mps 577 mmHg 87%
08:00 +11°C° 0.8 mm 1 mps 578 mmHg 85%
09:00 +12°C° 0.8 mm 1 mps 578 mmHg 82%
10:00 +13°C° 0.8 mm 2 mps 578 mmHg 79%
11:00 +13°C° 1 mm 2 mps 578 mmHg 75%
12:00 +14°C° 1 mm 2 mps 578 mmHg 72%
13:00 +15°C° 1 mm 2 mps 578 mmHg 69%
14:00 +14°C° 1.3 mm 2 mps 578 mmHg 71%
15:00 +14°C° 1.3 mm 2 mps 578 mmHg 72%
16:00 +14°C° 1.3 mm 2 mps 578 mmHg 74%
17:00 +13°C° 0.6 mm 2 mps 577 mmHg 78%
18:00 +12°C° 0.6 mm 1 mps 577 mmHg 82%
19:00 +11°C° 0.6 mm 1 mps 577 mmHg 86%
20:00 +10°C° 0 mm 1 mps 576 mmHg 87%
21:00 +8°C° 0 mm 1 mps 576 mmHg 88%
22:00 +6°C° 0 mm 0 mps 575 mmHg 89%
23:00 +6°C° 0 mm 0 mps 575 mmHg 89%

15 August, Saturday

Time Temperature Precipitation Wind Pressure Humidity
00:00 +5°C° 0 mm 0 mps 575 mmHg 89%
01:00 +5°C° 0 mm 0 mps 575 mmHg 89%
02:00 +5°C° 0 mm 0 mps 575 mmHg 89%
03:00 +5°C° 0 mm 0 mps 575 mmHg 89%
04:00 +4°C° 0 mm 0 mps 574 mmHg 89%
05:00 +6°C° 0 mm 0 mps 575 mmHg 85%
06:00 +7°C° 0 mm 0 mps 576 mmHg 82%
07:00 +8°C° 0 mm 0 mps 577 mmHg 78%
08:00 +11°C° 0 mm 1 mps 578 mmHg 69%
09:00 +13°C° 0 mm 1 mps 578 mmHg 60%
10:00 +14°C° 0 mm 1 mps 579 mmHg 51%
11:00 +15°C° 0 mm 1 mps 579 mmHg 49%
12:00 +16°C° 0 mm 2 mps 580 mmHg 46%
13:00 +17°C° 0 mm 2 mps 580 mmHg 43%
14:00 +17°C° 0 mm 2 mps 580 mmHg 43%
15:00 +17°C° 0 mm 2 mps 580 mmHg 44%
16:00 +17°C° 0 mm 2 mps 580 mmHg 44%
17:00 +15°C° 0 mm 2 mps 579 mmHg 54%
18:00 +13°C° 0 mm 2 mps 578 mmHg 64%
19:00 +12°C° 0 mm 1 mps 577 mmHg 74%
20:00 +10°C° 0 mm 1 mps 577 mmHg 79%
21:00 +9°C° 0 mm 1 mps 576 mmHg 84%
22:00 +7°C° 0 mm 1 mps 575 mmHg 89%
23:00 +6°C° 0 mm 0 mps 575 mmHg 89%

16 August, Sunday

Time Temperature Precipitation Wind Pressure Humidity
00:00 +5°C° 0 mm 0 mps 575 mmHg 89%
01:00 +5°C° 0 mm 0 mps 575 mmHg 90%
02:00 +5°C° 0 mm 0 mps 575 mmHg 89%
03:00 +5°C° 0 mm 0 mps 574 mmHg 89%
04:00 +5°C° 0 mm 0 mps 574 mmHg 88%
05:00 +7°C° 0 mm 1 mps 575 mmHg 83%
06:00 +9°C° 0 mm 1 mps 576 mmHg 78%
07:00 +11°C° 0 mm 1 mps 577 mmHg 73%
08:00 +13°C° 0 mm 1 mps 578 mmHg 66%
09:00 +15°C° 0 mm 1 mps 578 mmHg 58%
10:00 +16°C° 0 mm 1 mps 579 mmHg 51%
11:00 +18°C° 0 mm 1 mps 579 mmHg 48%
12:00 +19°C° 0 mm 1 mps 580 mmHg 45%
13:00 +20°C° 0 mm 1 mps 580 mmHg 42%
14:00 +20°C° 0.1 mm 1 mps 579 mmHg 46%
15:00 +18°C° 0.1 mm 2 mps 579 mmHg 49%
16:00 +17°C° 0.1 mm 2 mps 578 mmHg 53%
17:00 +16°C° 0.6 mm 1 mps 578 mmHg 63%
18:00 +14°C° 0.6 mm 1 mps 577 mmHg 73%
19:00 +11°C° 0.6 mm 0 mps 576 mmHg 83%
20:00 +11°C° 0.5 mm 1 mps 575 mmHg 84%
21:00 +11°C° 0.5 mm 1 mps 575 mmHg 85%
22:00 +10°C° 0.5 mm 1 mps 575 mmHg 87%
23:00 +10°C° 0.7 mm 1 mps 575 mmHg 87%
Show more